COSMOS 450

Satellite information

Favourite Embed

Satellite Type and Status

PAYLOADIN ORBIT

Key statistics

Satellite COSMOS 450 at a glance.

Uptime

19626

Days in orbit

Revolutions

≈ 12.4

Per day

Orbit

LEO

Low Earth Orbit

Inclination

74.0

Latest

Satellite identification and parameters

Extended collection of information and parameters for COSMOS 450.

Object identification

Identified? True

Debris? False

Object name: COSMOS 450

International designator: 1971-086G

Object number (NORAD): 5553

Object ID (CCSDS): 5553

Country: COMMONWEALTH OF INDEPENDENT STATES (CIS)

Current information (Y/N): Y

RCS size: MEDIUM

Orbital parameters

Period: 115.877 minutes

Inclination: 74.0275 deg

SMA: 7873.34 km

Apoapsis: 1529.189 km

Periapsis: 1461.221 km

RAAN: 74.2565 deg

Eccentricy: 0.0043164

Argument of periapsis: 239.1028 deg

Mean anomaly: 274.4355 deg

Mean motion: 12.42694145 rev/day

Mean motion (dot): -0.00000012 rev/day2

B* drag term: 0.000030119 1/REarth

Two-line elements (TLE)

Creation date: July 6, 2025, 6:05 p.m.

Reference frame: TEME

Reference center: EARTH

Epoch: July 6, 2025, 3:18 a.m. UTC

TLE line 0: 0 COSMOS 450

TLE line 1: 1 05553U 71086G 25187.13813025 -.00000012 00000-0 30119-4 0 9998

TLE line 2: 2 05553 74.0275 74.2565 0043164 239.1028 274.4355 12.42694145437414

Live tracking on map

Real-time ground track for satellite COSMOS 450.

In-orbit conjunctions

A list of the most updated potential collisions computed for object COSMOS 450.

Target Orbit TCA Probability of collision Miss distance Type
COSMOS 1137 LEO 2025-04-21 22:28:18 0.0005725593 133.0 (m) PAYLOAD
COSMOS 2499 DEB LEO 2024-09-15 15:59:48 0.0002824716 478.0 (m) DEBRIS

Associated space launch

Military communications satellites

COSMOS 450 was lifted into orbit during the mission ‘Kosmos-3M | Strela-1M 17-24’, on board a Kosmos-3M space rocket.

The launch took place on Oct. 13, 1971, 1:41 p.m. from 132/2.

For more information about the launch, click the button.

Launch to space Kosmos-3M | Strela-1M 17-24
Kosmos-3M | Strela-1M 17-24

Agency: N/A

Status: Launch Successful

Launch date: Oct. 13, 1971, 1:41 p.m. UTC

Rocket: Kosmos-3M

Launch pad: 132/2

Location: Plesetsk Cosmodrome, Russian Federation

...

Latest news about this satellite

There are no fresh news available about this satellite. Check back as we update our databases every day.


Newsletter sign-up

Weekly statistics, charts and insights to help you stay on top of the space industry.